FENGYUN 1C DEB, 29924

Orbit data source: Space-Track

FENGYUN 1C DEB, 29924 is space debris in SSO originally from a launch on Mon, 10 May 1999 UTC launched from the Taiyaun Space Center, China (TSC). Fengyun 1C debris stems from the Chinese weather satellite Fengyun-1C, which was intentionally destroyed by a Chinese anti-satellite missile in 2007. This event dramatically increased the amount of space debris, with thousands of trackable fragments posing hazards to satellites and human spaceflight. The Fengyun 1C debris cloud has become a focal point in discussions about space sustainability and the need for international regulations to prevent the creation of new debris.

Loading next visibility...
Identifier
29924, 1999-025HW
Orbit
SSO
Country
Flag of CNCN / PRC
Related business
Manufacturer
Unknown
Mission
Spacecraft
Bus & Motor
Unknown
Mass
Unknown
Launch date (UTC)
1999-05-10 (27 years ago)
Launch vehicle
Unknown
Launch site
Taiyaun Space Center, China (TSC)
Object type
Payload
Rocket body
Debris
Shape & HBR
Unknown shape, 0.1 m
Radar Cross Section
Small (<0.1 m²)

Expand to show TLE details & history
Last TLE update: 2 days ago

TLE from 2 days ago
0 FENGYUN 1C DEB
1 29924U 99025HW  25350.80929700  .00000103  00000-0  84144-4 0  9990
2 29924  98.7340   3.6404 0025968 245.7359 294.3356 14.08891032972658
Epoch: 2025-12-16T19:25Z
TLE epoch observation values (Epoch: 2025-12-16T19:25:23.260Z)
Latitude
0.08249°
Longitude
166.61791°
Altitude
858.347 km
Speed
7.427 km/s
True Right ascension
12h 14m 36s
True Declination
0° 04' 55"
Sunlit
Object was in daylight at epoch
Visualization orbit readout
Latitude
Unknown
Longitude
Unknown
Altitude
Unknown
Speed
Unknown
Apparent Right ascension
Unknown
Apparent Declination
Unknown
Sunlit
N/A
Visualization observer readout
Local Sidereal Time
19:21:36
Azimuth
Unknown
Elevation
Unknown
Doppler factor
Unknown
Orbital elements
Apogee altitude
879.141 km
Perigee altitude
841.547 km
Semi-major axis
7,238.481 km
Eccentricity
0.0026
Inclination
98.734°
RAAN
3.6404°
Arg. of periapsis
245.7359°
True anomaly
294.06411°
Mean anomaly
294.3356°
Eccentric anomaly
294.19989°
Mean motion
3.52429 °/min
Orbital period
102.15 mins
BSTAR
0.000084144
Loading maneuver chart data...
Computing Atmospheric mass density...

Documentation

Showing up to 5 results
|